Вернуться в каталог

STARLINK-31408

АктивенСвязьVLEO
NORAD 59240·PAYLOAD·🇺🇸 United States

Запущен Mar 16, 2024 с Cape Canaveral Space Force Station

Loading…

Ближайшие Пролёты (ближайшие 24 часа)

TLE

СвежийSource: CelesTrak SupGP

Эпоха: Sep 15, 2026, 02:22 UTC

1 59240C 24049K   26258.09909722  .00012939  00000+0  46867-3 0  2585
2 59240  43.0007 154.1453 0001281 276.8012 327.3685 15.27570921    11

Отслеживайте STARLINK-31408 в реальном времени с AllMySat

Download on the App Store